,,Stat1,,Stat2,,Stat3,,Stat4,,Wind1,,Wind1,
time,status,PR1M_SUM,status,RH1M_AVG,status,SR1M_AVG,status,TA1M_AVG,status,W1dAve1m,status,W1sAve1m,
2000-02-07, 00:00:00,VALID,0,VALID,98.6295,VALID,0,VALID,17.9668,VALID,207,VALID,0.698047,
2000-02-07, 00:01:00,VALID,0,VALID,98.5621,VALID,0.0169808,VALID,17.9894,VALID,212,VALID,0.558183,
2000-02-07, 00:02:00,VALID,0,VALID,98.5163,VALID,0,VALID,18.0023,VALID,215,VALID,0.530016,
2000-02-07, 00:03:00,VALID,0,VALID,98.4667,VALID,0,VALID,18.0055,VALID,213,VALID,0.245703,
2000-02-07, 00:04:00,VALID,0,VALID,98.3637,VALID,0,VALID,18.0085,VALID,207,VALID,0,
2000-02-07, 00:05:00,VALID,0,VALID,98.1577,VALID,0,VALID,17.9827,VALID,195,VALID,0,
2000-02-07, 00:06:00,VALID,0,VALID,98.0433,VALID,0.0169808,VALID,17.9534,VALID,187,VALID,0,
2000-02-07, 00:07:00,VALID,0,VALID,98.0598,VALID,0.0169808,VALID,17.9504,VALID,184,VALID,0,
2000-02-07, 00:08:00,VALID,0,VALID,98.0992,VALID,0.0169808,VALID,17.9573,VALID,182,VALID,0.129123,
2000-02-07, 00:09:00,VALID,0,VALID,98.1895,VALID,0,VALID,17.9603,VALID,181,VALID,0.59734,
2000-02-07, 00:10:01,VALID,0,VALID,98.1602,VALID,0,VALID,17.947,VALID,181,VALID,0.649038,
2000-02-07, 00:11:00,VALID,0,VALID,97.9708,VALID,0,VALID,17.9188,VALID,194,VALID,0.371916,
2000-02-07, 00:12:00,VALID,0,VALID,97.85,VALID,0,VALID,17.8697,VALID,214,VALID,0.271176,
2000-02-07, 00:13:00,VALID,0,VALID,97.8665,VALID,0,VALID,17.8637,VALID,232,VALID,0,
2000-02-07, 00:14:00,VALID,0,VALID,97.925,VALID,-0.0169808,VALID,17.8505,VALID,227,VALID,0,
2000-02-07, 00:15:00,VALID,0,VALID,97.9682,VALID,0,VALID,17.8535,VALID,214,VALID,0.00657895,
2000-02-07, 00:16:00,VALID,0,VALID,97.8309,VALID,0,VALID,17.8344,VALID,193,VALID,0.128289,
2000-02-07, 00:17:00,VALID,0,VALID,97.6719,VALID,0,VALID,17.8215,VALID,175,VALID,0.746711,
2000-02-07, 00:18:00,VALID,0,VALID,97.747,VALID,0,VALID,17.8544,VALID,167,VALID,0.74815,
2000-02-07, 00:19:00,VALID,0,VALID,97.485,VALID,0,VALID,17.8378,VALID,159,VALID,0.74486,
2000-02-07, 00:20:00,VALID,0,VALID,97.3006,VALID,0,VALID,17.8254,VALID,156,VALID,0.75884,
2000-02-07, 00:21:01,VALID,0,VALID,97.2574,VALID,0,VALID,17.8122,VALID,154,VALID,0.529811,
2000-02-07, 00:22:00,VALID,0,VALID,97.2332,VALID,0,VALID,17.7926,VALID,150,VALID,0.260896,
2000-02-07, 00:23:00,VALID,0,VALID,97.1252,VALID,-0.0169808,VALID,17.7896,VALID,149,VALID,0.135074,
2000-02-07, 00:24:00,VALID,0,VALID,97.0768,VALID,0.0169808,VALID,17.7767,VALID,149,VALID,0.245271,
2000-02-07, 00:25:00,VALID,0,VALID,97.0336,VALID,0,VALID,17.7569,VALID,149,VALID,0.0209704,
2000-02-07, 00:26:00,VALID,0,VALID,97.0247,VALID,0,VALID,17.741,VALID,149,VALID,0,
2000-02-07, 00:27:00,VALID,0,VALID,97.0183,VALID,0.0169808,VALID,17.7211,VALID,149,VALID,0,
2000-02-07, 00:28:00,VALID,0,VALID,97.0883,VALID,-0.0169808,VALID,17.7123,VALID,141,VALID,0,
2000-02-07, 00:29:00,VALID,0,VALID,97.0552,VALID,-0.0849042,VALID,17.6971,VALID,129,VALID,0,
2000-02-07, 00:30:00,VALID,0,VALID,97.1252,VALID,-0.0849042,VALID,17.6971,VALID,129,VALID,0,
2000-02-07, 00:31:00,VALID,0,VALID,97.3235,VALID,-0.101885,VALID,17.7102,VALID,135,VALID,0,
2000-02-07, 00:32:00,VALID,0,VALID,97.3922,VALID,-0.101885,VALID,17.7331,VALID,150,VALID,0,
2000-02-07, 00:33:00,VALID,0,VALID,97.4151,VALID,-0.0849042,VALID,17.7324,VALID,150,VALID,0,
2000-02-07, 00:34:00,VALID,0,VALID,97.3718,VALID,-0.101885,VALID,17.7294,VALID,150,VALID,0,
2000-02-07, 00:35:00,VALID,0,VALID,97.3184,VALID,-0.101885,VALID,17.7261,VALID,150,VALID,0,
2000-02-07, 00:36:00,VALID,0,VALID,97.3528,VALID,-0.118866,VALID,17.7331,VALID,150,VALID,0,
2000-02-07, 00:37:00,VALID,0,VALID,97.368,VALID,-0.135847,VALID,17.7522,VALID,150,VALID,0,
2000-02-07, 00:38:00,VALID,0,VALID,97.3935,VALID,-0.101885,VALID,17.7647,VALID,150,VALID,0,
2000-02-07, 00:39:00,VALID,0,VALID,97.368,VALID,-0.101885,VALID,17.7746,VALID,150,VALID,0,
2000-02-07, 00:40:00,VALID,0,VALID,97.3019,VALID,-0.0849042,VALID,17.7744,VALID,150,VALID,0,
2000-02-07, 00:41:00,VALID,0,VALID,97.2307,VALID,-0.101885,VALID,17.7778,VALID,150,VALID,0,
2000-02-07, 00:42:00,VALID,0,VALID,97.2282,VALID,-0.101885,VALID,17.7845,VALID,150,VALID,0,
2000-02-07, 00:43:00,VALID,0,VALID,97.2053,VALID,-0.118866,VALID,17.7714,VALID,154,VALID,0,
2000-02-07, 00:44:00,VALID,0,VALID,97.2549,VALID,-0.101885,VALID,17.7617,VALID,193,VALID,0,
2000-02-07, 00:45:00,VALID,0,VALID,97.3197,VALID,-0.101885,VALID,17.7522,VALID,247,VALID,0,
2000-02-07, 00:46:00,VALID,0,VALID,97.321,VALID,-0.0679233,VALID,17.7192,VALID,238,VALID,0.371299,
2000-02-07, 00:47:00,VALID,0,VALID,97.5372,VALID,-0.0849042,VALID,17.7197,VALID,233,VALID,0.768503,
2000-02-07, 00:48:00,VALID,0,VALID,97.6567,VALID,-0.101885,VALID,17.713,VALID,219,VALID,0.744038,
2000-02-07, 00:49:00,VALID,0,VALID,97.9021,VALID,-0.101885,VALID,17.7229,VALID,207,VALID,0.817023,
2000-02-07, 00:50:00,VALID,0,VALID,97.8334,VALID,-0.101885,VALID,17.7137,VALID,188,VALID,0.77426,
2000-02-07, 00:51:00,VALID,0,VALID,97.7063,VALID,-0.101885,VALID,17.6878,VALID,185,VALID,0.880757,
2000-02-07, 00:52:00,VALID,0,VALID,97.541,VALID,-0.101885,VALID,17.7003,VALID,196,VALID,0.894531,
2000-02-07, 00:53:00,VALID,0,VALID,97.2523,VALID,-0.0849042,VALID,17.7135,VALID,202,VALID,0.710526,
2000-02-07, 00:54:00,VALID,0,VALID,97.0311,VALID,-0.101885,VALID,17.7331,VALID,209,VALID,0.828536,
2000-02-07, 00:55:00,VALID,0,VALID,96.8937,VALID,-0.101885,VALID,17.7686,VALID,205,VALID,1.04626,
2000-02-07, 00:56:00,VALID,0,VALID,96.6013,VALID,-0.0849042,VALID,17.8327,VALID,211,VALID,0.91509,
2000-02-07, 00:57:00,VALID,0,VALID,96.1536,VALID,-0.101885,VALID,17.8814,VALID,211,VALID,0.653166,
2000-02-07, 00:58:00,VALID,0,VALID,95.8243,VALID,-0.0509425,VALID,17.9229,VALID,208,VALID,0.753495,
2000-02-07, 00:59:00,VALID,0,VALID,95.4746,VALID,0.0339617,VALID,17.9483,VALID,201,VALID,0.405428,
2000-02-07, 01:00:00,VALID,0,VALID,95.2864,VALID,0,VALID,17.9347,VALID,196,VALID,0.430715,
2000-02-07, 01:01:00,VALID,0,VALID,95.4594,VALID,0,VALID,17.9218,VALID,212,VALID,0.567845,
2000-02-07, 01:02:00,VALID,0,VALID,95.7035,VALID,0,VALID,17.8893,VALID,218,VALID,0.501234,
2000-02-07, 01:03:00,VALID,0,VALID,96.0074,VALID,0,VALID,17.8734,VALID,236,VALID,0.429893,
2000-02-07, 01:04:00,VALID,0,VALID,96.6229,VALID,0.0169808,VALID,17.8572,VALID,226,VALID,0.802426,
2000-02-07, 01:05:00,VALID,0,VALID,97.2294,VALID,0,VALID,17.8376,VALID,230,VALID,0.851768,
2000-02-07, 01:06:00,VALID,0,VALID,97.6185,VALID,0.0339617,VALID,17.8212,VALID,217,VALID,0.552837,
2000-02-07, 01:07:00,VALID,0,VALID,97.7788,VALID,0,VALID,17.8023,VALID,232,VALID,0.469161,
2000-02-07, 01:08:00,VALID,0,VALID,97.9085,VALID,0,VALID,17.776,VALID,224,VALID,0.857936,
2000-02-07, 01:09:00,VALID,0,VALID,98.0458,VALID,0,VALID,17.767,VALID,220,VALID,0.752673,
2000-02-07, 01:10:00,VALID,0,VALID,98.117,VALID,0,VALID,17.7573,VALID,230,VALID,0.414268,
2000-02-07, 01:11:00,VALID,0,VALID,98.1526,VALID,0,VALID,17.7211,VALID,227,VALID,0.623766,
2000-02-07, 01:12:00,VALID,0,VALID,98.1793,VALID,0,VALID,17.7218,VALID,211,VALID,0.567229,
2000-02-07, 01:13:00,VALID,0,VALID,98.0738,VALID,0,VALID,17.6861,VALID,197,VALID,0.367188,
2000-02-07, 01:14:00,VALID,0,VALID,97.9046,VALID,0,VALID,17.651,VALID,186,VALID,0.149054,
2000-02-07, 01:15:00,VALID,0,VALID,97.4965,VALID,-0.0169808,VALID,17.5765,VALID,173,VALID,0.603824,
2000-02-07, 01:16:00,VALID,0,VALID,97.5613,VALID,0,VALID,17.5181,VALID,171,VALID,0.949424,
2000-02-07, 01:17:00,VALID,0,VALID,97.7724,VALID,-0.0169808,VALID,17.5151,VALID,178,VALID,0.582237,
2000-02-07, 01:18:00,VALID,0,VALID,97.7152,VALID,-0.0169808,VALID,17.4822,VALID,176,VALID,0.000205592,
2000-02-07, 01:19:00,VALID,0,VALID,97.4634,VALID,-0.0169808,VALID,17.4475,VALID,176,VALID,0.0160362,
2000-02-07, 01:20:00,VALID,0,VALID,97.4837,VALID,-0.0339617,VALID,17.4445,VALID,176,VALID,0,
2000-02-07, 01:21:00,VALID,0,VALID,97.6211,VALID,0,VALID,17.4706,VALID,176,VALID,0,
2000-02-07, 01:22:00,VALID,0,VALID,97.6427,VALID,0,VALID,17.4796,VALID,180,VALID,0.00822368,
2000-02-07, 01:23:00,VALID,0,VALID,97.4609,VALID,0,VALID,17.4632,VALID,183,VALID,0.402755,
2000-02-07, 01:24:00,VALID,0,VALID,97.4596,VALID,0,VALID,17.4669,VALID,176,VALID,0.249383,
2000-02-07, 01:25:00,VALID,0,VALID,97.1862,VALID,-0.0169808,VALID,17.4282,VALID,279,VALID,0.105674,
2000-02-07, 01:26:00,VALID,0,VALID,97.2243,VALID,-0.0339617,VALID,17.4279,VALID,329,VALID,0,
2000-02-07, 01:27:00,VALID,0,VALID,97.1569,VALID,-0.0169808,VALID,17.4448,VALID,64,VALID,0.505345,
2000-02-07, 01:28:00,VALID,0,VALID,96.9141,VALID,0,VALID,17.4155,VALID,127,VALID,1.47307,
2000-02-07, 01:29:00,VALID,0,VALID,97.1926,VALID,-0.0169808,VALID,17.4609,VALID,127,VALID,1.28988,
2000-02-07, 01:30:00,VALID,0,VALID,96.9077,VALID,0,VALID,17.5093,VALID,126,VALID,0.777961,
2000-02-07, 01:31:00,VALID,0,VALID,96.5008,VALID,-0.0169808,VALID,17.5121,VALID,59,VALID,0.428043,
2000-02-07, 01:32:00,VALID,0,VALID,96.483,VALID,-0.0169808,VALID,17.5384,VALID,15,VALID,0.907895,
2000-02-07, 01:33:00,VALID,0,VALID,96.8467,VALID,0,VALID,17.6456,VALID,21,VALID,0.576069,
2000-02-07, 01:34:00,VALID,0,VALID,96.5466,VALID,-0.0169808,VALID,17.6936,VALID,102,VALID,0.4669,
2000-02-07, 01:35:00,VALID,0,VALID,95.5471,VALID,-0.0169808,VALID,17.6577,VALID,114,VALID,0.809622,
2000-02-07, 01:36:00,VALID,0,VALID,95.2317,VALID,0,VALID,17.5873,VALID,104,VALID,0.670847,
2000-02-07, 01:37:00,VALID,0,VALID,95.7251,VALID,-0.0339617,VALID,17.5192,VALID,103,VALID,0.19264,
2000-02-07, 01:38:00,VALID,0,VALID,96.1982,VALID,-0.0169808,VALID,17.4865,VALID,103,VALID,0,
2000-02-07, 01:39:00,VALID,0,VALID,96.1854,VALID,-0.0509425,VALID,17.4547,VALID,107,VALID,0.59375,
2000-02-07, 01:40:00,VALID,0,VALID,95.893,VALID,0,VALID,17.3995,VALID,126,VALID,1.17496,
2000-02-07, 01:41:00,VALID,0,VALID,96.188,VALID,0,VALID,17.3507,VALID,124,VALID,1.66098,
2000-02-07, 01:42:00,VALID,0,VALID,96.7666,VALID,0,VALID,17.3444,VALID,96,VALID,1.01748,
2000-02-07, 01:43:00,VALID,0,VALID,97.1277,VALID,0,VALID,17.3474,VALID,358,VALID,1.27611,
2000-02-07, 01:44:00,VALID,0,VALID,97.6554,VALID,-0.0509425,VALID,17.4508,VALID,325,VALID,0.700247,
2000-02-07, 01:45:00,VALID,0,VALID,97.6872,VALID,0,VALID,17.4607,VALID,81,VALID,0.976151,
2000-02-07, 01:46:00,VALID,0,VALID,97.6376,VALID,0,VALID,17.4803,VALID,109,VALID,1.39165,
2000-02-07, 01:47:00,VALID,0,VALID,97.026,VALID,0,VALID,17.5352,VALID,132,VALID,1.16242,
2000-02-07, 01:48:00,VALID,0,VALID,95.617,VALID,0,VALID,17.6934,VALID,147,VALID,0.939145,
2000-02-07, 01:49:00,VALID,0,VALID,94.8795,VALID,-0.0509425,VALID,17.7195,VALID,128,VALID,0.688117,
2000-02-07, 01:50:00,VALID,0,VALID,94.9723,VALID,-0.0169808,VALID,17.6609,VALID,144,VALID,0.363692,
2000-02-07, 01:51:00,VALID,0,VALID,95.2165,VALID,-0.0169808,VALID,17.6228,VALID,177,VALID,0.082648,
2000-02-07, 01:52:00,VALID,0,VALID,95.4937,VALID,-0.0169808,VALID,17.5739,VALID,188,VALID,0,
2000-02-07, 01:53:00,VALID,0,VALID,95.7849,VALID,-0.0169808,VALID,17.5451,VALID,188,VALID,0,
2000-02-07, 01:54:00,VALID,0,VALID,95.8917,VALID,0,VALID,17.5061,VALID,188,VALID,0,
2000-02-07, 01:55:00,VALID,0,VALID,95.8993,VALID,0,VALID,17.4997,VALID,157,VALID,0,
2000-02-07, 01:56:00,VALID,0,VALID,95.7887,VALID,-0.0169808,VALID,17.4839,VALID,190,VALID,0,
2000-02-07, 01:57:00,VALID,0,VALID,95.3475,VALID,-0.0339617,VALID,17.429,VALID,206,VALID,0.291735,
2000-02-07, 01:58:00,VALID,0,VALID,95.3119,VALID,0,VALID,17.3576,VALID,155,VALID,0.618832,
2000-02-07, 01:59:00,VALID,0,VALID,95.5522,VALID,-0.0169808,VALID,17.2639,VALID,139,VALID,0.959704,
2000-02-07, 02:00:00,VALID,0,VALID,96.3736,VALID,0.0169808,VALID,17.2319,VALID,147,VALID,0.941817,
2000-02-07, 02:01:00,VALID,0,VALID,96.6241,VALID,0,VALID,17.1961,VALID,160,VALID,0.733964,
2000-02-07, 02:02:00,VALID,0,VALID,96.4703,VALID,-0.0169808,VALID,17.135,VALID,164,VALID,0.221012,
2000-02-07, 02:03:00,VALID,0,VALID,96.3342,VALID,-0.0169808,VALID,17.067,VALID,170,VALID,0,
2000-02-07, 02:04:00,VALID,0,VALID,96.5377,VALID,0,VALID,17.0028,VALID,121,VALID,0,
2000-02-07, 02:05:00,VALID,0,VALID,96.6903,VALID,0,VALID,16.9378,VALID,112,VALID,0,
2000-02-07, 02:06:00,VALID,0,VALID,96.8492,VALID,0,VALID,16.8961,VALID,159,VALID,0,
2000-02-07, 02:07:00,VALID,0,VALID,97.0781,VALID,-0.0169808,VALID,16.8732,VALID,207,VALID,0.0131579,
2000-02-07, 02:08:00,VALID,0,VALID,97.3184,VALID,0,VALID,16.8638,VALID,221,VALID,0.572985,
2000-02-07, 02:09:00,VALID,0,VALID,97.513,VALID,0,VALID,16.8644,VALID,218,VALID,0.603413,
2000-02-07, 02:10:00,VALID,0,VALID,97.6109,VALID,0,VALID,16.8283,VALID,232,VALID,0.695518,
2000-02-07, 02:11:00,VALID,0,VALID,97.7432,VALID,0,VALID,16.8285,VALID,240,VALID,0.528783,
2000-02-07, 02:12:00,VALID,0,VALID,97.8144,VALID,-0.0169808,VALID,16.8153,VALID,198,VALID,0.367599,
2000-02-07, 02:13:00,VALID,0,VALID,97.7012,VALID,0,VALID,16.7828,VALID,178,VALID,0.500617,
2000-02-07, 02:14:00,VALID,0,VALID,97.9975,VALID,-0.0169808,VALID,16.8061,VALID,179,VALID,0.64227,
2000-02-07, 02:15:00,VALID,0,VALID,98.1221,VALID,-0.0169808,VALID,16.8317,VALID,183,VALID,0.689556,
2000-02-07, 02:16:00,VALID,0,VALID,98.0382,VALID,0,VALID,16.8446,VALID,189,VALID,0.498355,
2000-02-07, 02:17:00,VALID,0,VALID,97.911,VALID,-0.0169808,VALID,16.8354,VALID,207,VALID,0.159128,
2000-02-07, 02:18:00,VALID,0,VALID,97.8436,VALID,0,VALID,16.819,VALID,225,VALID,0.345189,
2000-02-07, 02:19:00,VALID,0,VALID,97.8411,VALID,0,VALID,16.8057,VALID,239,VALID,0.481497,
2000-02-07, 02:20:00,VALID,0,VALID,98.1017,VALID,0.0169808,VALID,16.822,VALID,228,VALID,0.991776,
2000-02-07, 02:21:00,VALID,0,VALID,98.3332,VALID,0,VALID,16.8608,VALID,219,VALID,0.933799,
2000-02-07, 02:22:00,VALID,0,VALID,98.4998,VALID,0,VALID,16.864,VALID,224,VALID,0.831003,
2000-02-07, 02:23:00,VALID,0,VALID,98.688,VALID,-0.0169808,VALID,16.9032,VALID,225,VALID,0.588816,
2000-02-07, 02:24:00,VALID,0,VALID,98.8456,VALID,-0.0339617,VALID,16.9221,VALID,203,VALID,0.552837,
2000-02-07, 02:25:00,VALID,0,VALID,98.866,VALID,-0.0339617,VALID,16.938,VALID,214,VALID,0.63384,
2000-02-07, 02:26:00,VALID,0,VALID,98.8978,VALID,0,VALID,16.9447,VALID,222,VALID,0.575658,
2000-02-07, 02:27:00,VALID,0,VALID,98.9652,VALID,-0.0169808,VALID,16.9576,VALID,216,VALID,0.0912829,
2000-02-07, 02:28:00,VALID,0,VALID,98.8482,VALID,0,VALID,16.9382,VALID,215,VALID,0,
2000-02-07, 02:29:00,VALID,0,VALID,98.7948,VALID,0,VALID,16.9094,VALID,204,VALID,0,
2000-02-07, 02:30:00,VALID,0,VALID,98.852,VALID,0.0169808,VALID,16.8961,VALID,201,VALID,0,
2000-02-07, 02:31:00,VALID,0,VALID,98.8609,VALID,0,VALID,16.8993,VALID,198,VALID,0,
2000-02-07, 02:32:00,VALID,0,VALID,98.7782,VALID,-0.0339617,VALID,16.8971,VALID,198,VALID,0,
2000-02-07, 02:33:00,VALID,0,VALID,98.838,VALID,-0.0169808,VALID,16.8741,VALID,198,VALID,0,
2000-02-07, 02:34:00,VALID,0,VALID,98.8596,VALID,-0.0679233,VALID,16.8842,VALID,197,VALID,0,
2000-02-07, 02:35:00,VALID,0,VALID,98.8889,VALID,-0.0169808,VALID,16.8803,VALID,195,VALID,0,
2000-02-07, 02:36:00,VALID,0,VALID,98.9346,VALID,-0.0169808,VALID,16.8801,VALID,195,VALID,0,
2000-02-07, 02:37:00,VALID,0,VALID,98.7795,VALID,-0.0169808,VALID,16.8448,VALID,195,VALID,0,
2000-02-07, 02:38:00,VALID,0,VALID,98.6231,VALID,-0.0339617,VALID,16.7968,VALID,185,VALID,0,
2000-02-07, 02:39:00,VALID,0,VALID,98.6574,VALID,-0.0169808,VALID,16.7637,VALID,172,VALID,0,
2000-02-07, 02:40:00,VALID,0,VALID,98.6816,VALID,-0.0169808,VALID,16.7712,VALID,181,VALID,0,
2000-02-07, 02:41:00,VALID,0,VALID,98.763,VALID,0,VALID,16.7443,VALID,193,VALID,0,
2000-02-07, 02:42:00,VALID,0,VALID,98.7948,VALID,0,VALID,16.7641,VALID,228,VALID,0,
2000-02-07, 02:43:01,VALID,0,VALID,98.8316,VALID,0,VALID,16.7663,VALID,246,VALID,0,
2000-02-07, 02:44:00,VALID,0,VALID,98.8304,VALID,0,VALID,16.7927,VALID,235,VALID,0,
2000-02-07, 02:45:00,VALID,0,VALID,98.8151,VALID,0,VALID,16.8123,VALID,223,VALID,0,
2000-02-07, 02:46:00,VALID,0,VALID,98.646,VALID,0,VALID,16.8255,VALID,202,VALID,0.157895,
2000-02-07, 02:47:00,VALID,0,VALID,98.6409,VALID,0.0169808,VALID,16.8283,VALID,205,VALID,0.740954,
2000-02-07, 02:48:00,VALID,0,VALID,98.5188,VALID,0,VALID,16.822,VALID,207,VALID,0.273026,
2000-02-07, 02:49:00,VALID,0,VALID,98.4832,VALID,0,VALID,16.825,VALID,202,VALID,0.275288,
2000-02-07, 02:50:00,VALID,0,VALID,98.351,VALID,-0.0169808,VALID,16.822,VALID,213,VALID,0.530016,
2000-02-07, 02:51:00,VALID,0,VALID,98.2925,VALID,-0.0339617,VALID,16.8156,VALID,212,VALID,0.374178,
2000-02-07, 02:52:00,VALID,0,VALID,98.2315,VALID,0,VALID,16.8153,VALID,212,VALID,0.0353618,
2000-02-07, 02:53:00,VALID,0,VALID,98.1666,VALID,-0.0169808,VALID,16.8125,VALID,212,VALID,0,
2000-02-07, 02:54:01,VALID,0,VALID,98.131,VALID,-0.0169808,VALID,16.7994,VALID,212,VALID,0,
2000-02-07, 02:55:00,VALID,0,VALID,98.1119,VALID,0,VALID,16.796,VALID,249,VALID,0.502673,
2000-02-07, 02:56:00,VALID,0,VALID,98.0458,VALID,0,VALID,16.7906,VALID,247,VALID,0.584293,
2000-02-07, 02:57:00,VALID,0,VALID,98.0827,VALID,0,VALID,16.7708,VALID,196,VALID,0.518709,
2000-02-07, 02:58:00,VALID,0,VALID,98.3344,VALID,0,VALID,16.7611,VALID,189,VALID,0.956414,
2000-02-07, 02:59:00,VALID,0,VALID,98.5735,VALID,0.0169808,VALID,16.7904,VALID,178,VALID,0.353413,
2000-02-07, 03:00:00,VALID,0,VALID,98.4527,VALID,0,VALID,16.7615,VALID,132,VALID,0.300164,
2000-02-07, 03:01:00,VALID,0,VALID,98.5099,VALID,-0.0169808,VALID,16.7449,VALID,154,VALID,0.228413,
2000-02-07, 03:02:00,VALID,0,VALID,98.5951,VALID,0.0169808,VALID,16.7512,VALID,157,VALID,0.000411184,
2000-02-07, 03:03:00,VALID,0,VALID,98.7019,VALID,0,VALID,16.7544,VALID,180,VALID,0.0851151,
2000-02-07, 03:04:00,VALID,0,VALID,98.735,VALID,0,VALID,16.7772,VALID,186,VALID,0,
2000-02-07, 03:05:01,VALID,0,VALID,98.5697,VALID,0,VALID,16.7641,VALID,202,VALID,0,
2000-02-07, 03:06:00,VALID,0,VALID,98.5341,VALID,-0.0339617,VALID,16.7482,VALID,202,VALID,0,
2000-02-07, 03:07:00,VALID,0,VALID,98.6791,VALID,-0.0169808,VALID,16.7647,VALID,214,VALID,0,
2000-02-07, 03:08:00,VALID,0,VALID,98.6765,VALID,0,VALID,16.7841,VALID,215,VALID,0,
2000-02-07, 03:09:00,VALID,0,VALID,98.6206,VALID,0,VALID,16.7835,VALID,215,VALID,0,
2000-02-07, 03:10:00,VALID,0,VALID,98.5977,VALID,0,VALID,16.8,VALID,214,VALID,0,
2000-02-07, 03:11:00,VALID,0,VALID,98.4146,VALID,0,VALID,16.7605,VALID,208,VALID,0,
2000-02-07, 03:12:00,VALID,0,VALID,98.2137,VALID,-0.0339617,VALID,16.7452,VALID,187,VALID,0,
2000-02-07, 03:13:00,VALID,0,VALID,98.131,VALID,-0.0169808,VALID,16.7062,VALID,205,VALID,0,
2000-02-07, 03:14:00,VALID,0,VALID,98.0649,VALID,0,VALID,16.6903,VALID,189,VALID,0,
2000-02-07, 03:15:00,VALID,0,VALID,98.0255,VALID,-0.0169808,VALID,16.6548,VALID,197,VALID,0,
2000-02-07, 03:16:01,VALID,0,VALID,98.1463,VALID,0,VALID,16.6483,VALID,208,VALID,0,
2000-02-07, 03:17:00,VALID,0,VALID,98.2009,VALID,0,VALID,16.638,VALID,208,VALID,0,
2000-02-07, 03:18:00,VALID,0,VALID,98.2594,VALID,0,VALID,16.6446,VALID,208,VALID,0,
2000-02-07, 03:19:00,VALID,0,VALID,98.276,VALID,0.0169808,VALID,16.6548,VALID,208,VALID,0,
2000-02-07, 03:20:00,VALID,0,VALID,98.3039,VALID,0.0169808,VALID,16.6578,VALID,208,VALID,0,
2000-02-07, 03:21:00,VALID,0,VALID,98.3624,VALID,-0.0169808,VALID,16.6769,VALID,208,VALID,0,
2000-02-07, 03:22:00,VALID,0,VALID,98.3344,VALID,-0.0169808,VALID,16.6802,VALID,208,VALID,0,
2000-02-07, 03:23:00,VALID,0,VALID,98.3281,VALID,0,VALID,16.7161,VALID,208,VALID,0,
2000-02-07, 03:24:00,VALID,0,VALID,98.337,VALID,-0.0169808,VALID,16.7385,VALID,208,VALID,0,
2000-02-07, 03:25:00,VALID,0,VALID,98.2658,VALID,-0.0169808,VALID,16.7738,VALID,208,VALID,0,
2000-02-07, 03:26:00,VALID,0,VALID,98.0127,VALID,0,VALID,16.7837,VALID,210,VALID,0,
2000-02-07, 03:27:01,VALID,0,VALID,97.8843,VALID,0,VALID,16.7611,VALID,216,VALID,0,
2000-02-07, 03:28:00,VALID,0,VALID,97.9301,VALID,-0.0169808,VALID,16.7839,VALID,216,VALID,0,
2000-02-07, 03:29:00,VALID,0,VALID,98.1602,VALID,-0.0169808,VALID,16.8125,VALID,216,VALID,0,
2000-02-07, 03:30:00,VALID,0,VALID,98.262,VALID,-0.0169808,VALID,16.8547,VALID,211,VALID,0,
2000-02-07, 03:31:00,VALID,0,VALID,98.0267,VALID,0,VALID,16.8483,VALID,191,VALID,0,
2000-02-07, 03:32:00,VALID,0,VALID,97.953,VALID,0,VALID,16.8741,VALID,189,VALID,0,
2000-02-07, 03:33:00,VALID,0,VALID,97.8945,VALID,-0.0339617,VALID,16.8902,VALID,203,VALID,0,
2000-02-07, 03:34:00,VALID,0,VALID,97.9174,VALID,0,VALID,16.9359,VALID,218,VALID,0,
2000-02-07, 03:35:00,VALID,0,VALID,97.8754,VALID,0,VALID,16.958,VALID,218,VALID,0,
2000-02-07, 03:36:00,VALID,0,VALID,97.7521,VALID,0,VALID,16.997,VALID,210,VALID,0,
2000-02-07, 03:37:00,VALID,0,VALID,97.5333,VALID,-0.0169808,VALID,16.9936,VALID,173,VALID,0,
2000-02-07, 03:38:00,VALID,0,VALID,97.574,VALID,0.0169808,VALID,17.0032,VALID,189,VALID,0,
2000-02-07, 03:39:00,VALID,0,VALID,97.6198,VALID,0,VALID,17.0194,VALID,209,VALID,0,
2000-02-07, 03:40:00,VALID,0,VALID,97.5918,VALID,-0.0339617,VALID,17.0351,VALID,220,VALID,0,
2000-02-07, 03:41:00,VALID,0,VALID,97.5232,VALID,-0.0169808,VALID,17.0579,VALID,223,VALID,0,
2000-02-07, 03:42:00,VALID,0,VALID,97.4621,VALID,0.0169808,VALID,17.0676,VALID,231,VALID,0,
2000-02-07, 03:43:00,VALID,0,VALID,97.4532,VALID,-0.0169808,VALID,17.1001,VALID,231,VALID,0,
2000-02-07, 03:44:00,VALID,0,VALID,97.3782,VALID,-0.0339617,VALID,17.1328,VALID,233,VALID,0,
2000-02-07, 03:45:00,VALID,0,VALID,97.3045,VALID,-0.0339617,VALID,17.1617,VALID,234,VALID,0,
2000-02-07, 03:46:00,VALID,0,VALID,97.1913,VALID,-0.0169808,VALID,17.1972,VALID,225,VALID,0,
2000-02-07, 03:47:00,VALID,0,VALID,96.9471,VALID,-0.0339617,VALID,17.2224,VALID,225,VALID,0,
2000-02-07, 03:48:00,VALID,0,VALID,96.7271,VALID,-0.0509425,VALID,17.2095,VALID,214,VALID,0,
2000-02-07, 03:49:00,VALID,0,VALID,96.7373,VALID,-0.0679233,VALID,17.2131,VALID,190,VALID,0,
2000-02-07, 03:50:00,VALID,0,VALID,96.8085,VALID,-0.0679233,VALID,17.2263,VALID,194,VALID,0,
2000-02-07, 03:51:00,VALID,0,VALID,96.8734,VALID,-0.0169808,VALID,17.2196,VALID,195,VALID,0,
2000-02-07, 03:52:00,VALID,0,VALID,96.8925,VALID,-0.0169808,VALID,17.2293,VALID,202,VALID,0,
2000-02-07, 03:53:00,VALID,0,VALID,96.8352,VALID,-0.0679233,VALID,17.2489,VALID,199,VALID,0,
2000-02-07, 03:54:00,VALID,0,VALID,96.7513,VALID,-0.0339617,VALID,17.2685,VALID,195,VALID,0,
2000-02-07, 03:55:00,VALID,0,VALID,96.6699,VALID,-0.0339617,VALID,17.2939,VALID,175,VALID,0,
2000-02-07, 03:56:00,VALID,0,VALID,96.6165,VALID,-0.0339617,VALID,17.2906,VALID,171,VALID,0,
2000-02-07, 03:57:00,VALID,0,VALID,96.7449,VALID,-0.0169808,VALID,17.2781,VALID,171,VALID,0,
2000-02-07, 03:58:00,VALID,0,VALID,96.8581,VALID,-0.0509425,VALID,17.2514,VALID,171,VALID,0,
2000-02-07, 03:59:00,VALID,0,VALID,96.9942,VALID,-0.0339617,VALID,17.239,VALID,171,VALID,0,
2000-02-07, 04:00:00,VALID,0,VALID,97.1137,VALID,-0.0339617,VALID,17.2297,VALID,166,VALID,0,
2000-02-07, 04:01:00,VALID,0,VALID,97.176,VALID,-0.0339617,VALID,17.2133,VALID,157,VALID,0,
2000-02-07, 04:02:00,VALID,0,VALID,97.2129,VALID,-0.0679233,VALID,17.2034,VALID,154,VALID,0,
2000-02-07, 04:03:00,VALID,0,VALID,97.246,VALID,-0.0509425,VALID,17.2101,VALID,154,VALID,0,
2000-02-07, 04:04:00,VALID,0,VALID,97.3235,VALID,-0.0339617,VALID,17.2032,VALID,154,VALID,0,
2000-02-07, 04:05:00,VALID,0,VALID,97.3134,VALID,-0.0509425,VALID,17.1907,VALID,153,VALID,0,
2000-02-07, 04:06:00,VALID,0,VALID,97.3095,VALID,-0.0339617,VALID,17.1645,VALID,153,VALID,0,
2000-02-07, 04:07:00,VALID,0,VALID,97.3324,VALID,-0.0679233,VALID,17.1744,VALID,153,VALID,0,
2000-02-07, 04:08:00,VALID,0,VALID,97.3744,VALID,-0.0679233,VALID,17.1742,VALID,153,VALID,0,
2000-02-07, 04:09:00,VALID,0,VALID,97.3451,VALID,-0.0509425,VALID,17.1875,VALID,153,VALID,0,
2000-02-07, 04:10:00,VALID,0,VALID,97.2091,VALID,-0.0509425,VALID,17.2131,VALID,153,VALID,0,
2000-02-07, 04:11:00,VALID,0,VALID,97.1328,VALID,-0.101885,VALID,17.2224,VALID,153,VALID,0,
2000-02-07, 04:12:00,VALID,0,VALID,97.0539,VALID,-0.0679233,VALID,17.2454,VALID,153,VALID,0,
2000-02-07, 04:13:00,VALID,0,VALID,97.0158,VALID,-0.0169808,VALID,17.2487,VALID,153,VALID,0,
2000-02-07, 04:14:00,VALID,0,VALID,96.9878,VALID,0.0849042,VALID,17.2508,VALID,153,VALID,0,